Home > Weather > Liverpool > Past weeks

Flag for United Kingdom Weather for the Past 2 Weeks in Liverpool, England, United Kingdom

Now
45 °F

Clear.


Feels Like: 37 °F
Forecast: 45 / 48 °F
Wind: 17 mph from Southwest

Location: Liverpool Airport

Current Time: Feb 8, 2016 at 2:27:45 AM

Latest Report: Feb 8, 2016 at 1:20 AM


Visibility: 10 mi

Pressure: 28.80 "Hg

Humidity: 81%

Dew point: 39 °F

Location of LiverpoolLocation

Historic Weather in Liverpool — Graph

°F

Liverpool Temperature Yesterday

Maximum temperature yesterday: 48 °F (at 11:50 AM)
Minimum temperature yesterday: 39 °F (at 4:50 AM)
Average temperature yesterday: 43 °F

High & Low Weather Summary for the Past Weeks

 TemperatureHumidityPressure
High57 °F (Jan 24, 12:20 PM)100% (Jan 24, 1:20 AM)30.27 "Hg (Jan 24, 1:20 AM)
Low37 °F (Feb 3, 5:20 AM)57% (Feb 2, 1:50 AM)28.80 "Hg (Feb 8, 12:50 AM)
Average48 °F82%29.75 "Hg
* Reported Jan 24 1:20 AM — Feb 8 1:20 AM, Liverpool, Weather by CustomWeather, © 2016

Note: Actual official high and low records may vary slightly from our data, if they occured in-between our weather recording intervals... More about our weather records

Advertising

Liverpool Weather History for the Previous 24 Hours

 ConditionsComfort  
Time TempWeatherWind HumidityBarometerVisibility
1:20 AM
Mon, Feb 8
45 °FClear.17 mph81%28.80 "Hg10 mi
12:50 AM45 °FClear.17 mph81%28.80 "Hg10 mi
12:20 AM45 °FScattered showers. Passing clouds.15 mph81%28.82 "HgN/A
11:50 PM
Sun, Feb 7
45 °FScattered showers. Passing clouds.9 mph87%28.82 "HgN/A
11:20 PM45 °FScattered showers. Partly cloudy.14 mph87%28.82 "HgN/A
10:50 PM45 °FRain. Passing clouds.21 mph87%28.82 "Hg4 mi
10:20 PM48 °FRain showers. Passing clouds.18 mph82%28.82 "Hg5 mi
9:50 PM48 °FScattered showers. Passing clouds.13 mph82%28.82 "HgN/A
9:20 PM45 °FSprinkles. Passing clouds.14 mph93%28.85 "HgN/A
8:50 PM45 °FRain showers. Partly cloudy.15 mph93%28.85 "HgN/A
8:20 PM43 °FRain. Partly cloudy.16 mph93%28.82 "HgN/A
7:50 PM43 °FRain. Passing clouds.17 mph93%28.85 "HgN/A
7:20 PM41 °FSprinkles. Partly cloudy.17 mph93%28.88 "HgN/A
6:50 PM43 °FSprinkles. Passing clouds.20 mph87%28.91 "HgN/A
6:20 PM43 °FRain showers. Partly cloudy.17 mph87%28.94 "HgN/A
5:50 PM41 °FSprinkles. Passing clouds.14 mph87%28.97 "HgN/A
5:20 PM41 °FSprinkles. Passing clouds.15 mph87%29.03 "HgN/A
4:50 PM43 °FSprinkles. Partly sunny.15 mph81%29.06 "HgN/A
4:20 PM45 °FSprinkles. Partly sunny.20 mph76%29.09 "HgN/A
3:20 PM46 °FScattered showers. Scattered clouds.22 mph71%29.12 "HgN/A
2:50 PM46 °FScattered showers. Scattered clouds.20 mph71%29.12 "HgN/A
2:20 PM46 °FPassing clouds.18 mph71%29.15 "HgN/A
1:50 PM46 °FScattered showers. Passing clouds.20 mph71%29.15 "HgN/A
1:20 PM46 °FScattered showers. Passing clouds.22 mph66%29.15 "HgN/A
12:50 PM48 °FScattered showers. Passing clouds.23 mph66%29.15 "HgN/A
12:20 PM46 °FPassing clouds.25 mph76%29.15 "HgN/A
11:50 AM48 °FPassing clouds.20 mph71%29.15 "HgN/A
11:20 AM46 °FPassing clouds.18 mph71%29.15 "HgN/A
10:50 AM46 °FPassing clouds.18 mph76%29.15 "HgN/A
10:20 AM45 °FPassing clouds.16 mph76%29.12 "HgN/A
9:50 AM43 °FPassing clouds.15 mph87%29.12 "HgN/A
9:20 AM41 °FScattered clouds.15 mph87%29.12 "HgN/A
8:50 AM39 °FPassing clouds.13 mph93%29.12 "HgN/A
8:20 AM39 °FPassing clouds.8 mph93%29.12 "HgN/A
7:50 AM39 °FPassing clouds.13 mph87%29.09 "HgN/A
7:20 AM41 °FScattered showers. Passing clouds.14 mph87%29.09 "HgN/A
6:50 AM39 °FSprinkles. Partly cloudy.15 mph93%29.09 "HgN/A
6:20 AM39 °FSprinkles. Passing clouds.12 mph93%29.06 "HgN/A
5:50 AM39 °FPassing clouds.15 mph87%29.06 "HgN/A
5:20 AM39 °FPassing clouds.17 mph93%29.06 "HgN/A
4:50 AM39 °FPassing clouds.14 mph87%29.06 "HgN/A
4:20 AM41 °FPassing clouds.17 mph87%29.06 "HgN/A
3:20 AM41 °FClear.16 mph93%29.03 "Hg10 mi
2:50 AM41 °FClear.13 mph87%29.03 "Hg10 mi
2:20 AM41 °FClear.14 mph87%29.03 "Hg10 mi
Weather by CustomWeather, © 2016

See weather overviewHow to use our weather pages